Location: El Espinar
(40.7188°N, 4.2472°W)
Time: 17:27:53
(UTC+00:00)

Daily predictions for brighter satellites

Satellite Brightness Start Highest point End
(mag) Time Altitude Azimuth Time Altitude Azimuth Time Altitude Azimuth
Cosmos 1745 Rocket 4.5 18:21:48 10° SSW 18:27:52 68° W 18:34:00 10° N
Cosmos 2278 4.1 18:23:18 10° S 18:28:37 43° ESE 18:33:58 10° NE
Cosmos 2228 Rocket 3.5 18:25:36 10° N 18:29:55 41° ENE 18:34:08 10° SSE
Aureole 1 Rocket 4.1 18:24:08 10° NNW 18:31:29 64° ENE 18:37:08 10° SSE
COSMOS 2455 3.6 18:26:39 10° NNW 18:32:03 33° NE 18:37:25 10° ESE
CZ-2D R/B 3.2 18:29:57 10° SSE 18:33:44 86° ENE 18:37:33 10° N
Cosmos 2297 Rocket 3.1 18:28:51 10° NNW 18:34:22 56° WSW 18:39:51 10° S
Cosmos 1812 2.7 18:34:45 10° N 18:38:37 89° E 18:42:26 10° S
CZ-4 R/B 4.4 18:35:17 10° SSE 18:39:26 80° ENE 18:43:36 10° N
ATLAS 5 CENTAUR R/B 4.5 18:16:02 10° SW 18:39:42 68° NW 18:45:02 10° NNE
Cosmos 2084 3.4 18:35:46 10° SSW 18:39:56 82° ESE 18:44:14 10° NE
Meteor 2-6 Rocket 4.4 18:34:17 10° N 18:40:02 84° W 18:45:34 10° S
CZ-2C R/B 3.5 18:35:23 10° NE 18:40:09 29° E 18:44:48 10° SSE
Cosmos 1689 Rocket 2.8 18:37:42 10° NNE 18:40:17 30° E 18:42:52 10° SSE
Cosmos 1709 Rocket 4.0 18:35:05 10° S 18:41:13 87° E 18:47:27 10° N
CZ-2C R/B 3.5 18:36:01 10° SSE 18:41:51 83° WSW 18:47:36 10° NNW
BREEZE-M DEB (TANK) 3.1 18:41:22 10° WNW 18:43:15 24° NNW 18:45:38 10° NE
Cosmos 1331 Rocket 4.2 18:38:52 10° S 18:43:57 51° ESE 18:49:04 10° NNE
Gbstr 26 Del rocket 3.2 18:39:56 10° SW 18:44:04 66° SE 18:49:07 10° ENE
CSL-04 Rocket 4.3 18:41:49 10° SE 18:46:49 36° ENE 18:51:49 10° N
Cosmos 292 Rocket 3.7 18:42:26 10° SSW 18:47:10 89° ESE 18:51:57 10° NNE
Cosmos 2181 Rocket 4.1 18:41:17 10° N 18:47:41 59° E 18:53:58 10° SSE
Abrixas rocket 3.8 18:47:58 10° SSE 18:48:59 12° SE 18:49:31 11° ESE
Cosmos 1242 Rocket 2.9 18:46:40 10° NNW 18:50:12 68° W 18:53:45 10° S
FALCON 9 DEB 3.3 18:50:47 10° WSW 18:53:57 63° NW 18:56:59 11° NE
YAOGAN 1 2.5 18:51:03 10° SSE 18:55:19 67° ENE 18:59:38 10° N
Helios 1A Rocket 3.3 18:52:07 10° SE 18:55:55 39° ENE 18:59:43 10° N
Okean-O 2.6 18:52:18 10° SSE 18:56:41 67° ENE 19:01:06 10° N
Cosmos 1500 Rocket 4.3 18:53:14 10° SSW 18:57:31 56° W 19:01:47 10° N
Cosmos 1818 3.7 18:52:24 10° NW 18:57:54 80° WSW 19:03:20 10° SSE
COSMO-SKYMED 1 3.9 18:54:01 10° N 18:58:08 43° WNW 19:02:14 10° SW
Cosmos 220 Rocket 3.8 18:54:50 10° SSW 18:59:01 76° ESE 19:03:15 10° NNE
SL-4 R/B 3.2 18:56:58 10° W 19:00:09 29° NNW 19:03:13 10° NE
FALCON 9 DEB 3.9 18:59:24 10° WSW 19:02:26 42° NNW 19:05:10 12° NE
Cosmos 1980 Rocket 2.2 18:58:10 10° SSW 19:03:49 89° WNW 19:09:32 10° NNE
Sich 1 2.9 19:02:22 10° S 19:06:41 68° E 19:11:04 10° NNE
Lacrosse 5 rocket 1.3 19:03:14 10° NW 19:07:39 73° NE 19:10:59 15° SE
CZ-4B R/B 4.0 19:09:27 10° NNW 19:11:48 21° WNW 19:14:09 10° WSW
Cosmos 1302 Rocket 4.2 19:07:07 10° S 19:12:02 45° ESE 19:16:58 10° NNE
Cosmos 2322 Rocket 3.2 19:09:16 10° SSE 19:13:34 23° E 19:15:03 21° ENE
Cosmos 44 3.5 19:09:35 10° NNW 19:15:04 88° WSW 19:20:26 10° SSE
SJ-11-01 4.3 19:11:09 10° S 19:15:49 82° W 19:20:30 10° NNW
IRIS 3.5 19:15:01 10° W 19:17:46 86° N 19:18:14 53° ENE
Cosmos 2082 4.3 19:13:45 10° NNW 19:19:16 57° WSW 19:24:44 10° S
Cosmos 1437 2.5 19:17:33 10° N 19:20:23 51° E 19:21:07 38° SE
Cosmos 1867 3.8 19:15:26 10° SW 19:20:50 74° WNW 19:26:20 10° NNE
Cosmos 1707 Rocket 3.5 19:16:40 10° N 19:21:02 58° E 19:25:19 10° SSE
Cosmos 1633 Rocket 3.2 19:18:35 10° SSE 19:22:49 50° E 19:27:06 10° NNE
ERS-2 3.0 19:21:53 10° N 19:25:27 52° WNW 19:28:59 10° SSW
Meteor 1-20 Rocket 4.1 19:21:14 10° S 19:26:37 64° E 19:32:01 10° NNE
SL-16 R/B 2.5 19:27:28 10° S 19:32:47 43° ESE 19:37:13 15° NE
USA 234 3.8 19:29:51 10° NE 19:36:14 58° NW 19:42:36 10° WSW
USA 305 4.1 19:32:33 10° WSW 19:36:33 38° NNW 19:39:14 18° NNE
Cosmos 2327 Rocket 4.5 19:33:57 10° S 19:40:14 63° E 19:46:28 10° NNE
CZ-4 R/B 3.5 19:37:14 10° SSW 19:40:32 27° W 19:43:53 10° NW
Ariane Rocket 3.5 19:43:24 37° ENE 19:43:29 37° ENE 19:48:09 10° N
USA 307 4.2 19:40:28 10° W 19:44:25 36° NNW 19:46:43 21° NNE
SeaSat 1 4.1 19:41:20 10° N 19:45:43 33° NW 19:50:06 10° WSW
Cosmos 2154 Rocket 3.9 19:40:37 10° S 19:46:47 70° E 19:52:59 10° NNE
SME Rocket 4.4 19:38:40 10° NNE 19:47:25 54° E 19:53:03 10° S
DMSP B5D2-2 3.9 19:42:35 10° NNE 19:47:51 77° ESE 19:53:03 10° S
NOSS 2-1 (E) 4.5 19:43:52 10° NW 19:49:21 90° SSW 19:55:00 19° SSE
Nadezhda 3 Rocket 4.0 19:43:43 10° N 19:50:03 64° E 19:56:21 10° SSE
USA 306 4.4 19:46:59 10° W 19:50:50 32° NNW 19:52:52 21° NNE
Cosmos 2263 Rocket 2.0 19:47:30 10° NNW 19:53:06 82° ENE 19:55:56 30° SSE
USA 308 4.4 19:50:55 10° W 19:54:45 32° NNW 19:56:37 22° NNE
Cosmos 1470 Rocket 3.7 19:50:27 10° S 19:56:48 32° NNE 19:59:19 10° NNE
ERBS 3.5 19:51:53 10° SW 19:53:55 34° SSW 19:53:55 34° SSW
Cosmos 2074 Rocket 4.4 19:49:34 10° SSW 19:55:47 64° W 20:02:02 10° N
Meteor 1-14 Rocket 4.2 19:51:49 10° S 19:57:19 56° E 20:02:44 10° NNE
Cosmos 1610 Rocket 4.3 19:51:44 10° S 19:57:52 85° E 20:04:08 10° N
CZ-3 Stage 3 4.3 19:55:57 10° WSW 19:58:16 14° SSW 19:58:22 14° SSW
SJ-6B 3.6 20:04:15 44° N 20:04:15 44° N 20:07:10 10° N
H-2A R/B 4.3 20:00:15 10° SSW 20:04:45 27° W 20:09:20 10° NW
Cosmos 1271 Rocket 3.9 20:04:56 10° NNW 20:08:27 40° W 20:10:33 20° SSW
GP-B 3.1 20:10:28 72° N 20:10:28 72° N 20:14:29 10° N
Meteor 2-4 Rocket 4.1 20:07:07 10° N 20:11:52 48° NE 20:11:52 48° NE
Cosmos 1461 3.4 20:08:14 10° SW 20:12:55 70° WNW 20:13:50 54° N
Cosmos 1295 Rocket 4.4 20:06:54 10° S 20:13:13 87° W 20:19:30 10° N
Okean 1 4.2 20:11:45 10° NNW 20:14:32 42° NNW 20:14:32 42° NNW
MetOp-A 4.3 20:13:33 25° S 20:16:44 73° WSW 20:22:06 10° NNW
COSMOS 2455 3.9 20:12:26 10° NW 20:18:04 43° WSW 20:23:02 13° S
Meteor 1-18 Rocket 4.3 20:12:07 10° N 20:18:06 86° W 20:20:39 36° S
CZ-2C R/B 4.1 20:15:25 10° N 20:20:27 37° WNW 20:25:23 10° SW
Cosmos 1862 Rocket 4.2 20:17:51 10° NNW 20:22:15 56° W 20:22:51 51° SW
Cosmos 1844 Rocket 4.1 20:26:04 10° N 20:28:45 25° NNE 20:28:45 25° NNE
Cosmos 2341 Rocket 3.8 20:25:15 10° S 20:31:36 82° E 20:37:55 10° N
Cosmos 1486 Rocket 4.2 20:26:21 10° NNW 20:30:48 64° NNW 20:30:48 64° NNW
Cosmos 962 Rocket 4.4 20:27:07 10° S 20:33:16 86° W 20:39:32 10° N
Lacrosse 5 rocket 4.1 20:44:04 10° W 20:46:11 14° WSW 20:46:41 13° SW
Cosmos 2322 Rocket 3.0 20:51:49 10° SW 20:57:03 48° WNW 20:57:03 48° WNW
SL-16 R/B 4.0 21:12:12 10° WSW 21:17:02 28° NW 21:19:18 22° NNW
